Regional Weather Roundup
Issued by NWS Cleveland, OH

Home | Current Version | Previous Version | Graphics & Text | Print | Product List | Glossary On
Versions: 1 2 3 4 5 6 7 8 9 10 11 12 13 14 15 16 17 18 19 20 21 22 23 24 25 26 27 28 29 30 31 32 33 34 35 36 37 38 39 40 41 42 43 44 45 46 47 48 49 50
000
ASUS41 KCLE 240510
RWRCLE
OHIO REGIONAL WEATHER ROUNDUP
NATIONAL WEATHER SERVICE WILMINGTON, OH
100 AM EDT THU APR 24 2014

NOTE: "FAIR" INDICATES FEW OR NO CLOUDS BELOW 12,000 FEET WITH NO
SIGNIFICANT WEATHER AND/OR OBSTRUCTIONS TO VISIBILITY.

OHZ001>008-015>018-024>027-034-035-043-044-240600-
   NORTHWEST OHIO

CITY           SKY/WX    TMP DP  RH WIND       PRES   REMARKS
DEFIANCE       CLOUDY    50  32  50 SE8       30.10F
FINDLAY        CLOUDY    46  31  55 E9        30.10F
TOLEDO EXPRESS CLOUDY    46  30  53 SE3       30.11F
TOLEDO METCALF CLOUDY    44  31  60 E6        30.12F
LIMA           MOCLDY    47  33  58 SE10      30.09S
$$

OHZ009>014-019>023-028>033-038-089-240600-
   NORTHEAST OHIO

CITY           SKY/WX    TMP DP  RH WIND       PRES   REMARKS
CLE-HOPKINS    PTCLDY    38  27  64 SW5       30.16R
CLE-LAKEFRONT  PTCLDY    41  23  48 NE5       30.12S
CUY CO. ARPT   NOT AVBL
LORAIN-ELYRIA  PTCLDY    39  30  70 CALM      30.14R
ASHTABULA      CLEAR     31  19  61 NW3       30.12F
AKRON-CANTON   CLEAR     38  24  57 N5        30.12S
WOOSTER        CLEAR     32  28  85 CALM      30.13S
MANSFIELD      PTCLDY    39  28  64 E3        30.12S
YOUNGSTOWN     PTCLDY    33  19  56 CALM      30.10S
$$

OHZ042-051>053-060>062-070>072-077>081-240600-
  SOUTHWEST OHIO

CITY           SKY/WX    TMP DP  RH WIND       PRES   REMARKS
CINC-COVINGTON CLOUDY    53  32  44 E8        30.07F
CINC-LUNKEN    PTCLDY    45  39  79 CALM      30.10S
HAMILTON       MOCLDY    49  37  63 E5        30.10R
DAYTON         PTCLDY    48  33  56 E10       30.10S
WRIGHT-PAT AFB CLOUDY    46  32  58 E8        30.10S
DAYTON GENERAL CLEAR     47  34  60 E7        30.09R
WILMINGTON     CLEAR     43  32  65 E6        30.09R
$$

OHZ036-037-039>041-045>050-054>059-063>069-073>076-082>088-240600-
  CENTRAL AND SOUTHEAST OHIO

CITY           SKY/WX    TMP DP  RH WIND       PRES   REMARKS
COLUMBUS       PTCLDY    44  29  55 CALM      30.10F
OSU AIRPORT    PTCLDY    40  30  67 E7        30.10F
BOLTON FIELD   CLEAR     43  31  64 E5        30.10F
RICKENBACK AFB CLEAR     42  30  62 E3        30.10F
NEWARK         PTCLDY    37  30  75 CALM      30.11F
MARION         MOCLDY    39  31  72 E7        30.11F
LANCASTER      CLEAR     37  31  78 CALM      30.11F
ZANESVILLE     CLEAR     39  29  67 CALM      30.12S
NEW PHILLY     CLEAR     33  27  78 CALM      30.14S
$$



USA.gov is the U.S. government's official web portal to all federal, state and local government web resources and services.